Tracking 22440 objects as of 27-Feb-2021
HD Live streaming from Space Station
objects crossing your sky now

STARLINK-1988

Track STARLINK-1988 now!
10-day predictions
STARLINK-1988 is classified as:


NORAD ID: 47584
Int'l Code: 2021-009AN
Perigee: 385.9 km
Apogee: 387.7 km
Inclination: 53.1 °
Period: 92.1 minutes
Semi major axis: 6757 km
RCS: Unknown
Launch date: February 4, 2021
Source: United States (US)
Launch site: AIR FORCE EASTERN TEST RANGE (AFETR)
aabbcc
Your satellite tracking list
Your tracking list is empty




NASA's NSSDC Master Catalog

Two Line Element Set (TLE):
1 47584U 21009AN  21058.16667824 -.00041278  00000-0 -44700-3 0  9998
2 47584  53.0544  11.4915 0001283  67.6498 153.9575 15.62768148  4238
Source of the keplerian elements: AFSPC